www.pogodaiklimat.ru

Погода и климат >> Архив погоды >> Россия >> Курганская область >> Шумиха


ПОГОДА в Шумихе

  • Прогноз погоды в Шумихе
  • Монитор погоды в Шумихе

АРХИВ ПОГОДЫ в Шумихе

Время (UTC), дата Ветер
(напр.,м/с)
 
Видим.   Явления Облачность Т
(С)
Тd
(С)
f
(%)
Тe
(С)
Тes
(С)
Комфортность P
(гПа)
Po
(гПа)
Тmin
(С)
Tmax
(С)
R
(мм)
R24
(мм)
S
(см)
00 14.03 В 2 4000 м слаб. снег 10/10 600 м
[Sc]
-0.5 -1.4 94 -4 -4 1012.2 990.0
03 14.03 В 2 20 км {снег} 10/0
[As op]
-0.3 -1.2 94 -4 -4 1010.1 988.0 -0.5 2 33
06 14.03 В 2 20 км {снег} 10/0
[As op]
+1.4 -0.9 85 -2 -1 1007.0 985.1
09 14.03 ЮВ 3 20 км 10/10 600 м
[Sc]
+2.8 -1.2 75 -1 -1 1003.8 982.1
12 14.03 ЮВ 5 4000 м слаб. дождь 10/10 600 м
[Sc]
+1.9 -0.4 85 -4 -4 999.9 978.2
15 14.03 Ю 6
{12}
4000 м слаб. дождь 10/10 600 м
[Sc]
+1.7 -0.5 85 -4 -4 995.6 973.9 +3.0 2
18 14.03 З 6-10
{12}
20 км {дождь} 10/10 600 м
[Sc]
-0.9 -2.5 89 -8 -8 996.2 974.3
21 14.03 З 4
{13}
20 км 10/10 600 м
[Sc]
-3.0 -6.3 78 -9 -9 999.7 977.5
00 15.03 З 5
{12}
4000 м слаб. снег {метель} 10/10 600 м
[Sc]
-3.7 -6.3 82 -11 -11 1001.9 979.7
03 15.03 З 6-11
{13}
4000 м слаб. снег {метель} 9/9 600 м
[Sc]
-3.9 -6.9 80 -11 -11 1004.8 982.5 -4.0 0.5 28
06 15.03 З 7-14
{15}
20 км позёмок {снег} 9/3 600 м
[Sc Ci sp]
-3.8 -10.2 61 -11 -11 1007.2 984.8 -4.3
09 15.03 З 7-17
{17}
20 км {метель} 9/5 600 м
[Sc Ac trans]
-3.1 -10.4 57 -10 -10 1008.6 986.2
12 15.03 З 6-11
{17}
20 км {метель} 8/8 600 м
[Sc diur, vesp]
-2.8 -10.6 55 -10 -9 1010.9 988.5
15 15.03 З 5
{13}
20 км 5/0
[Ci sp]
-4.5 -12.0 56 -11 -11 1013.1 990.5 -2.6 0.0
18 15.03 З 6-12
{13}
20 км ясно -4.8 -13.0 53 -12 -12 1014.8 992.2
21 15.03 З 4-10
{12}
20 км ясно -6.0 -13.1 57 -12 -12 1017.0 994.3
00 16.03 З 5
{10}
20 км ясно -7.2 -14.0 58 -14 -14 1019.0 996.0
03 16.03 З 6-10
{10}
20 км ясно -7.9 -14.4 60 -16 -16 1020.8 997.8 -8.3 26
06 16.03 СЗ 5
{12}
20 км ясно -4.2 -13.5 48 -11 -8 1021.5 998.8
09 16.03 З 5
{11}
20 км 3/0
[Ac trans]
-1.4 -13.2 40 -7 -4 1022.1 999.6
12 16.03 З 3 20 км ясно -0.5 -12.6 39 -4 -3 1022.8 1000.3
15 16.03 ЮЗ 2 20 км 3/0
[Ac trans]
-4.3 -11.9 55 -8 -8 1024.3 1001.5 -0.3
18 16.03 ЮЗ 2 20 км ясно -8.1 -13.8 63 -12 -12 1025.3 1002.2
21 16.03 ЮЗ 1 20 км ясно -9.0 -13.4 70 -11 -11 1025.9 1002.7
00 17.03 штиль 0 20 км ясно -12.0 -14.2 84 -12 -12 1027.0 1003.5
03 17.03 штиль 0 20 км 8/0
[Ci sp]
-12.3 -14.3 85 -12 -12 1028.4 1004.8 -14.2 26
06 17.03 штиль 0 20 км 5/0
[Ci sp]
-0.3 -11.7 42 -1 +6 1028.6 1006.0
09 17.03 Ю 1 20 км 3/0
[Ci sp]
+2.2 -12.9 32 +2 +9 1028.4 1006.0
12 17.03 Ю 1 20 км ясно +2.2 -13.0 31 +2 +3 1028.5 1006.1
15 17.03 штиль 0 20 км 3/0
[Ci sp]
-3.5 -11.6 53 -4 -4 1030.1 1007.2 +5.6
18 17.03 ЮВ 1 20 км 3/0
[Ci sp]
-7.2 -11.1 74 -9 -9 1031.1 1007.9
21 17.03 ЮВ 1 20 км ясно -8.6 -10.7 85 -11 -11 1031.5 1008.2
00 18.03 ЮВ 1 20 км ясно -11.2 -12.9 87 -13 -13 1032.4 1008.8
03 18.03 В 1 20 км 6/0
[Ci sp]
-9.6 -11.4 87 -12 -11 1032.7 1009.3 -12.7 26
06 18.03 В 2 20 км 4/0
[Ci fib]
-1.9 -12.4 44 -5 0 1032.7 1009.9
09 18.03 В 2 20 км 4/0
[Ci fib]
+1.3 -12.4 35 -1 +5 1032.6 1010.0
12 18.03 ЮВ 2 20 км 9/0
[Ci sp]
+0.6 -9.9 45 -2 -1 1031.9 1009.3
15 18.03 В 2 20 км 9/0
[Ac trans Ci sp]
-3.2 -8.6 66 -7 -7 1032.4 1009.5 +1.4
18 18.03 ЮВ 1 20 км 9/0
[Ci sp]
-5.8 -10.1 72 -8 -8 1032.4 1009.3
21 18.03 ЮВ 1 20 км 9/0
[Ci sp]
-7.9 -10.2 84 -10 -10 1032.6 1009.3
00 19.03 ЮВ 2 20 км 9/0
[Ci sp]
-11.2 -13.0 87 -16 -16 1032.7 1009.1
03 19.03 В 1 20 км 9/0
[Ac trans Ci sp]
-9.8 -11.6 87 -12 -12 1032.6 1009.2 -11.4 26
06 19.03 В 2 20 км 9/0
[Ci sp]
-6.5 -10.2 75 -11 -6 1032.4 1009.2
09 19.03 В 3 20 км 8/0
[Ci sp]
-1.7 -9.8 54 -6 -1 1031.9 1009.1
12 19.03 В 2 20 км 9/0
[Ci sp]
-0.8 -10.3 49 -4 -3 1031.2 1008.6
15 19.03 ЮВ 1 20 км 4/0
[Ci sp]
-4.3 -11.2 59 -6 -6 1031.5 1008.6 -0.5
18 19.03 ЮВ 2 20 км ясно -6.4 -11.3 68 -11 -11 1031.5 1008.4
21 19.03 ЮВ 1 20 км ясно -8.7 -10.6 86 -11 -11 1030.9 1007.6
00 20.03 ЮВ 2 20 км ясно -12.8 -15.0 84 -17 -17 1030.3 1006.6
03 20.03 Ю 1 20 км 3/0
[Ac trans]
-11.0 -12.9 86 -13 -12 1029.6 1006.1 -13.6 25
06 20.03 Ю 2 20 км 3/0
[Ci sp]
-5.6 -10.2 70 -10 -4 1028.3 1005.4
09 20.03 ЮВ 2 20 км 3/0
[Ci sp]
-2.0 -9.1 58 -5 +1 1026.9 1004.2
12 20.03 Ю 2 20 км 3/0
[Ci sp]
-1.2 -8.8 56 -4 -3 1025.6 1003.1
15 20.03 Ю 2 20 км 3/0
[Ci sp]
-4.1 -9.7 65 -8 -8 1024.9 1002.1 -1.2
18 20.03 Ю 2 20 км ясно -7.4 -10.2 80 -12 -12 1024.6 1001.5

 

Местоположение метеостанции Шумиха (Курганская область, Россия): широта 55.23 долгота 63.32 высота над уровнем моря 178 м.

В архиве по умолчанию представлена погода в Шумихе за последнюю неделю. Архивные данные за месяц целиком и за предыдущие месяцы, начиная с января 2011 года, Вы можете получить, выбрав интересующий диапазон дат из раскрывающегося списка и нажав кнопку "Ввод!".


*Определитесь, кто Вы:
робот инопланетянин человек

Внимание! Время в таблицах - всемирное. Для получения местного времени необходимо прибавить поправку, которая равна 5 ч.

Смотрите также архив погоды в соседних городах и на ближайших метеорологических станциях:

Погода в Куртамыше (Курганская область, Россия) (79 км)
Погода в Целинном (Курганская область, Россия) (84 км)
Погода в Бродокалмаке (Челябинская область, Россия) (88 км)
Погода в Шадринске (Курганская область, Россия) (96 км)
Погода в Октябрьском (Челябинская область, Россия) (98 км)
Погода в Далматово (Курганская область, Россия) (118 км)
Погода в Челябинске (Челябинская область, Россия) (129 км)
Погода в Звериноголовском (Курганская область, Россия) (130 км)
Погода в Кургане (Курганская область, Россия) (134 км)
Погода в Южноуральске (Челябинская область, Россия) (154 км)

Пояснения к столбцам:

Ветер - указаны скорость ветра в м/с - средняя за 10 мин, порывы в срок и между сроками (в фигурных скобках) и направление, откуда дует ветер: С - северный, СВ - северо-восточный, В - восточный, ЮВ - юго-восточный, Ю - южный, ЮЗ - юго-западный, З - западный, СЗ - северо-западный.
Видимость - горизонтальная дальность видимости в метрах или километрах. При видимости от 1 до 10 км при отсутствии осадков обычно наблюдается дымка, при ухудшении видимости до 1 км и менее - туман. В сухую погоду видимость может ухудшаться дымом, пылью или мглою.
Явления - указаны атмосферные явления, наблюдавшиеся в срок или в последний час перед сроком; фигурными скобками обозначены явления, наблюдавшиеся между сроками (за 1-3 часа до срока); квадратными скобками обозначены град или гололедные отложения с указанием их диаметра в мм.
Облачность - указаны через наклонную черту общая и нижняя облачность в баллах и высота нижней границы облаков в метрах; квадратными скобками обозначены формы облаков: Ci - перистые, Cs - перисто-слоистые, Cc - перисто-кучевые, Ac - высококучевые, As - высокослоистые, Sc - слоисто-кучевые, Ns - слоисто-дождевые, Cu - кучевые, Cb - кучево-дождевые. Подробнее классификацию облаков см. в Атласе облаков (PDF).
T - Температура воздуха - температура, измеренная на высоте 2 м над землей.
Td - Температура точки росы - температура, при понижении до которой содержащийся в воздухе водяной пар достигнет насыщения.
f - Относительная влажность воздуха - влажноcть воздуха, измеренная на высоте 2 м над землей.
Te - Эффективная температура - температура, которую ощущает одетый по сезону человек в тени. Характеристика душности погоды. При расчете учитывается влияние влажности воздуха и скорости ветра на теплоощущения человека.
Tes - Эффективная температура на солнце - температура, которую ощущает человек, с поправкой на солнечный нагрев. Характеристика знойности погоды. Зависит от высоты солнца над горизонтом, облачности и скорости ветра. Ночью, в пасмурную погоду, а также при ветре 12 м/с и более поправка равна нулю.
P - Атмосферное давление - приведенное к уровню моря атмосферное давление.
Po - Атмосферное давление - измеренное на уровне метеостанции атмосферное давление.
Tmin - Минимальная температура - минимум температуры воздуха на высоте 2 м над землей.
Tmax - Максимальная температура - максимум температуры воздуха на высоте 2 м над землей.
R - Количество осадков - Количество выпавших осадков за период времени, мм. При наведении курсора мыши на число - период времени, за который выпало указанное количество осадков.
R24 - Количество осадков - Количество выпавших осадков за 24 часа, мм.
S - Снежный покров - Высота снежного покрова, см. При наведении курсора мыши на число - состояние снежного покрова и степень покрытия местности в баллах.